Regional Weather Roundup
Issued by NWS

Home | Current Version | Previous Version | Graphics & Text | Print | Product List | Glossary On
Versions: 1 2 3 4 5 6 7 8 9 10 11 12 13 14 15 16 17 18 19 20 21 22 23 24 25 26 27 28 29 30 31 32 33 34 35 36 37 38 39 40 41 42 43 44 45 46 47 48 49 50
000
ASUS43 KFSD 101802
RWRSD

WEATHER ROUNDUP FOR SOUTH DAKOTA
NATIONAL WEATHER SERVICE SIOUX FALLS SD
1200 PM CST SAT DEC 10 2016

NOTE: "FAIR" INDICATES FEW OR NO CLOUDS BELOW 12,000 FEET WITH NO
SIGNIFICANT WEATHER AND/OR OBSTRUCTIONS TO VISIBILITY.


SDZ001>005-009-010-012>017-101900-
NORTHWEST AND NORTH CENTRAL SOUTH DAKOTA

CITY           SKY/WX    TMP DP  RH WIND       PRES   REMARKS
BUFFALO          N/A      3  -3  76 SE18      29.86F WCI -17
FAITH            N/A      2  -1  88 SE17      29.99F WCI -18
MOBRIDGE       LGT SNOW   1  -7  68 E15       30.15F WCI -18
$$

SDZ012>016-024>037-041>051-057-063-072>074-101900-
SOUTHWEST AND SOUTH CENTRAL SOUTH DAKOTA

CITY           SKY/WX    TMP DP  RH WIND       PRES   REMARKS
RAPID CTY ARPT CLOUDY     5   1  83 SE10      29.89F WCI -10
PIERRE         CLOUDY     4   0  83 E16       30.11F WCI -15
CUSTER         CLOUDY    32  22  66 SW7       29.70F WCI  26
ELLSWORTH AFB  CLOUDY     4   1  85 SE12      29.87  WCI -12
PHILIP         CLOUDY     5   1  83 E13       30.03F WCI -12
PINE RIDGE     CLOUDY    13   9  84 E6        29.88F WCI   4
SPEARFISH      FAIR       5   0  78 CALM      29.82F
WINNER         CLOUDY    12   7  80 E14       30.05F HAZE    WCI  -3
$$

SDZ004>011-016>023-039-040-101900-
NORTHEAST SOUTH DAKOTA

CITY           SKY/WX    TMP DP  RH WIND       PRES   REMARKS
ABERDEEN       LGT SNOW   2  -6  69 NE9       30.30F WCI -13
WATERTOWN      LGT SNOW   1  -3  83 SE8       30.25F VSB 1   WCI -13
SISSETON         N/A      0  -6  76 S6        30.36F WCI -12
$$

SDZ017-020-022-023-036>040-048>070-101900-
SOUTHEAST SOUTH DAKOTA

CITY           SKY/WX    TMP DP  RH WIND       PRES   REMARKS
SIOUX FALLS    LGT SNOW  13  10  88 E12       30.27F VSB 3/4 WCI  -1
HURON          LGT SNOW  10   6  84 E13       30.24F VSB 3/4 WCI  -5
CHAMBERLAIN    FLURRIES  10   6  83 E13G20    30.12F WCI  -5
MITCHELL       CLOUDY    14  10  84 E16       30.24F WCI  -2
YANKTON        CLOUDY    19  14  79 SE14G20   30.21F WCI   6
$$

ABBREVIATIONS USED IN REMARKS
   TC - TEMPERATURE IN CELSIUS
  WCI - WIND CHILL INDEX
   HX - HEAT INDEX
  VSB - VISIBILITY





USA.gov is the U.S. government's official web portal to all federal, state and local government web resources and services.